CW8399 Weather Reports


Display with metric or nautical units.
time (UTC)temp
F
wind
direction
speed
MPH
gust
MPH
rain 1hr
in
rain 24hr
in
rain mn
in
humidity
%
barometer
mb
20260502170515 79 357 2.0 11.0 0.00 0.00 0.00
20260502164016 76 212 0.0 3.0 0.00 0.00 0.00
20260502163517 76 0 0.0 3.0 0.00 0.00 0.00
20260502163020 76 0 1.0 3.0 0.00 0.00 0.00
20260502162505 75 0 0.0 1.0 0.00 0.00 0.00
20260502162028 74 349 0.0 2.0 0.00 0.00 0.00
20260502161521 74 0 0.0 4.0 0.00 0.00 0.00
20260502161021 74 0 1.0 4.0 0.00 0.00 0.00
20260502160522 73 359 1.0 5.0 0.00 0.00 0.00
20260502152024 70 0 0.0 2.0 0.00 0.00 0.00
20260502151514 69 357 0.0 1.0 0.00 0.00 0.00
20260502151019 69 0 0.0 1.0 0.00 0.00 0.00
20260502150521 68 357 0.0 1.0 0.00 0.00 0.00
20260502130511 63 0 0.0 0.0 0.00 0.00 0.00
20260502123522 64 0 0.0 0.0 0.00 0.00 0.00
20260502123021 64 0 0.0 0.0 0.00 0.00 0.00
20260502121516 65 0 0.0 1.0 0.00 0.00 0.00
20260502121017 65 0 0.0 0.0 0.00 0.00 0.00
20260502120520 65 0 0.0 1.0 0.00 0.00 0.00
20260502115504 65 0 0.0 0.0 0.00 0.00 0.00
20260502115026 65 278 0.0 1.0 0.00 0.00 0.00
20260502114517 66 222 0.0 1.0 0.00 0.00 0.00
20260502113006 66 325 0.0 1.0 0.00 0.00 0.00
20260502112505 66 0 0.0 1.0 0.00 0.00 0.00
20260502112027 66 0 0.0 1.0 0.00 0.00 0.00
20260502111516 66 0 0.0 1.0 0.00 0.00 0.00
20260502111015 66 355 0.0 1.0 0.00 0.00 0.00
20260502110508 67 314 0.0 1.0 0.00 0.00 0.00
20260502110009 67 254 0.0 0.0 0.00 0.00 0.00
20260502105510 67 0 0.0 0.0 0.00 0.00 0.00
20260502105031 68 344 0.0 0.0 0.00 0.00 0.00
20260502104523 68 339 0.0 0.0 0.00 0.00 0.00
20260502104023 68 353 0.0 0.0 0.00 0.00 0.00
20260502103524 68 107 0.0 0.0 0.00 0.00 0.00
20260502103005 68 176 0.0 0.0 0.00 0.00 0.00
20260502101503 69 313 0.0 0.0 0.00 0.00 0.00
20260502100512 70 0 0.0 0.0 0.00 0.00 0.00
20260502091013 71 0 0.0 1.0 0.00 0.00 0.00
20260502071513 73 0 0.0 9.0 0.00 0.00 0.00
20260502071011 73 0 0.0 9.0 0.00 0.00 0.00
20260502070511 74 345 1.0 6.0 0.00 0.00 0.00
20260502065509 74 0 1.0 6.0 0.00 0.00 0.00
20260502065030 74 357 2.0 6.0 0.00 0.00 0.00
20260502064522 74 0 0.0 9.0 0.00 0.00 0.00
20260502063505 74 0 3.0 8.0 0.00 0.00 0.00
20260502063004 75 0 1.0 9.0 0.00 0.00 0.00
20260502062505 75 0 4.0 11.0 0.00 0.00 0.00
20260502062028 75 0 3.0 11.0 0.00 0.00 0.00
20260502061519 75 0 5.0 11.0 0.00 0.00 0.00
20260502061019 75 0 3.0 10.0 0.00 0.00 0.00
20260502060504 75 0 3.0 10.0 0.00 0.00 0.00
20260502060005 75 0 5.0 10.0 0.00 0.00 0.00
20260502055031 76 344 4.0 10.0 0.00 0.00 0.00
20260502054504 76 355 2.0 9.0 0.00 0.00 0.00
20260502054004 76 0 5.0 10.0 0.00 0.00 0.00
20260502053507 76 356 4.0 12.0 0.00 0.00 0.00
20260502053007 76 0 6.0 12.0 0.00 0.00 0.00
20260502052506 76 352 6.0 14.0 0.00 0.00 0.00
20260502051531 76 359 6.0 13.0 0.00 0.00 0.00
20260502051020 77 331 4.0 13.0 0.00 0.00 0.00
20260502050520 77 359 4.0 12.0 0.00 0.00 0.00
20260502050021 77 0 7.0 13.0 0.00 0.00 0.00
20260502045522 77 0 6.0 13.0 0.00 0.00 0.00
20260502045013 77 0 5.0 12.0 0.00 0.00 0.00
20260502044519 77 355 2.0 10.0 0.00 0.00 0.00
20260502044017 77 355 6.0 12.0 0.00 0.00 0.00
20260502043516 77 0 5.0 12.0 0.00 0.00 0.00
20260502043019 78 354 4.0 10.0 0.00 0.00 0.00
20260502042520 78 343 2.0 7.0 0.00 0.00 0.00
20260502042022 78 0 2.0 9.0 0.00 0.00 0.00
20260502041513 78 354 4.0 10.0 0.00 0.00 0.00
20260502041012 78 350 5.0 10.0 0.00 0.00 0.00
20260502040514 78 347 4.0 10.0 0.00 0.00 0.00
20260502040015 78 339 5.0 10.0 0.00 0.00 0.00
20260502035022 78 359 2.0 9.0 0.00 0.00 0.00
20260502034512 79 357 3.0 9.0 0.00 0.00 0.00
20260502034010 79 358 3.0 9.0 0.00 0.00 0.00
20260502033513 79 315 3.0 9.0 0.00 0.00 0.00
20260502033014 79 0 1.0 7.0 0.00 0.00 0.00
20260502032514 79 16 2.0 8.0 0.00 0.00 0.00
20260502032015 80 0 3.0 8.0 0.00 0.00 0.00
20260502031506 80 0 3.0 10.0 0.00 0.00 0.00
20260502031007 80 357 5.0 10.0 0.00 0.00 0.00
20260502030509 80 0 4.0 8.0 0.00 0.00 0.00
20260502030013 80 0 4.0 8.0 0.00 0.00 0.00
20260502025513 81 356 2.0 9.0 0.00 0.00 0.00
20260502025015 81 0 4.0 9.0 0.00 0.00 0.00
20260502024506 81 0 3.0 11.0 0.00 0.00 0.00
20260502024006 81 359 2.0 12.0 0.00 0.00 0.00
20260502023507 81 354 7.0 12.0 0.00 0.00 0.00
20260502023011 82 359 5.0 9.0 0.00 0.00 0.00
20260502022510 82 0 0.0 6.0 0.00 0.00 0.00
20260502022015 82 0 0.0 6.0 0.00 0.00 0.00
20260502021505 83 353 3.0 9.0 0.00 0.00 0.00
20260502021005 83 343 3.0 9.0 0.00 0.00 0.00
20260502020506 83 355 2.0 8.0 0.00 0.00 0.00
20260502020006 84 0 0.0 17.0 0.00 0.00 0.00
20260502015507 84 357 11.0 17.0 0.00 0.00 0.00
20260502015008 84 356 5.0 14.0 0.00 0.00 0.00
20260502014529 85 352 4.0 13.0 0.00 0.00 0.00
20260502014020 85 359 4.0 13.0 0.00 0.00 0.00
20260502013522 85 0 6.0 12.0 0.00 0.00 0.00
20260502013023 86 0 6.0 14.0 0.00 0.00 0.00
20260502012505 86 0 8.0 14.0 0.00 0.00 0.00
20260502012028 86 354 6.0 13.0 0.00 0.00 0.00
20260502011519 86 0 6.0 12.0 0.00 0.00 0.00
20260502010505 87 0 3.0 17.0 0.00 0.00 0.00
20260502010008 87 358 0.0 9.0 0.00 0.00 0.00
20260502005509 87 0 2.0 11.0 0.00 0.00 0.00
20260502005012 87 0 6.0 16.0 0.00 0.00 0.00
20260502004524 87 0 10.0 16.0 0.00 0.00 0.00
20260502004021 87 0 6.0 14.0 0.00 0.00 0.00
20260502003522 87 354 3.0 8.0 0.00 0.00 0.00
20260502003021 87 359 5.0 11.0 0.00 0.00 0.00
20260502002524 87 344 2.0 11.0 0.00 0.00 0.00
20260502002027 87 356 1.0 11.0 0.00 0.00 0.00
20260502001503 87 0 9.0 11.0 0.00 0.00 0.00
20260502001006 87 346 4.0 12.0 0.00 0.00 0.00
20260502000506 87 359 7.0 10.0 0.00 0.00 0.00
20260502000007 87 8 3.0 12.0 0.00 0.00 0.00
20260501235508 87 297 3.0 12.0 0.00 0.00 0.00
20260501235013 87 0 1.0 9.0 0.00 0.00 0.00
20260501234524 87 0 1.0 7.0 0.00 0.00 0.00
20260501234004 86 0 0.0 9.0 0.00 0.00 0.00
20260501233506 86 0 1.0 9.0 0.00 0.00 0.00
20260501233010 86 0 0.0 8.0 0.00 0.00 0.00
20260501232514 86 0 3.0 9.0 0.00 0.00 0.00
20260501232014 86 358 4.0 9.0 0.00 0.00 0.00
20260501231505 86 0 1.0 9.0 0.00 0.00 0.00
20260501231011 86 0 2.0 18.0 0.00 0.00 0.00
20260501230016 86 346 10.0 15.0 0.00 0.00 0.00
20260501225518 86 359 7.0 11.0 0.00 0.00 0.00
20260501225019 86 359 4.0 13.0 0.00 0.00 0.00
20260501224509 86 0 5.0 13.0 0.00 0.00 0.00
20260501224007 86 359 6.0 16.0 0.00 0.00 0.00
20260501223509 86 0 10.0 16.0 0.00 0.00 0.00
20260501222513 86 354 5.0 13.0 0.00 0.00 0.00
20260501222016 86 0 6.0 13.0 0.00 0.00 0.00
20260501221508 86 357 5.0 13.0 0.00 0.00 0.00
20260501221009 86 0 3.0 14.0 0.00 0.00 0.00
20260501220508 86 0 6.0 14.0 0.00 0.00 0.00
20260501220008 86 351 3.0 16.0 0.00 0.00 0.00
20260501215512 86 0 7.0 16.0 0.00 0.00 0.00
20260501215015 86 343 10.0 15.0 0.00 0.00 0.00
20260501214507 86 357 3.0 12.0 0.00 0.00 0.00
20260501214008 86 358 5.0 12.0 0.00 0.00 0.00
20260501213507 86 347 6.0 11.0 0.00 0.00 0.00
20260501213008 86 356 2.0 8.0 0.00 0.00 0.00
20260501212510 86 343 4.0 8.0 0.00 0.00 0.00
20260501212011 86 343 1.0 9.0 0.00 0.00 0.00
20260501211004 86 0 0.0 8.0 0.00 0.00 0.00
20260501210506 86 357 3.0 8.0 0.00 0.00 0.00
20260501210006 86 357 4.0 7.0 0.00 0.00 0.00
20260501205510 86 0 0.0 3.0 0.00 0.00 0.00
20260501205030 86 0 0.0 8.0 0.00 0.00 0.00
20260501204006 86 344 4.0 9.0 0.00 0.00 0.00
20260501203506 86 0 3.0 9.0 0.00 0.00 0.00
20260501203009 86 0 2.0 10.0 0.00 0.00 0.00
20260501202509 86 359 5.0 10.0 0.00 0.00 0.00
20260501202030 86 353 5.0 10.0 0.00 0.00 0.00
20260501201522 86 323 4.0 9.0 0.00 0.00 0.00
20260501201021 85 357 1.0 7.0 0.00 0.00 0.00
20260501200004 84 283 2.0 10.0 0.00 0.00 0.00
20260501195505 84 0 0.0 6.0 0.00 0.00 0.00
20260501195027 84 0 0.0 4.0 0.00 0.00 0.00
20260501194520 84 0 0.0 6.0 0.00 0.00 0.00
20260501194021 83 353 2.0 7.0 0.00 0.00 0.00
20260501193519 83 0 2.0 7.0 0.00 0.00 0.00
20260501193004 83 356 0.0 1.0 0.00 0.00 0.00
20260501192508 82 0 0.0 7.0 0.00 0.00 0.00
20260501192030 82 359 3.0 7.0 0.00 0.00 0.00
20260501191505 81 0 1.0 3.0 0.00 0.00 0.00
20260501191007 81 0 1.0 6.0 0.00 0.00 0.00
20260501185513 81 0 3.0 10.0 0.00 0.00 0.00
20260501185033 82 0 0.0 5.0 0.00 0.00 0.00
20260501184504 82 0 0.0 2.0 0.00 0.00 0.00
20260501184006 82 226 0.0 5.0 0.00 0.00 0.00
20260501183506 82 0 0.0 5.0 0.00 0.00 0.00
20260501183005 82 0 0.0 6.0 0.00 0.00 0.00
20260501182505 82 0 2.0 9.0 0.00 0.00 0.00
20260501182026 82 0 3.0 9.0 0.00 0.00 0.00
20260501181518 82 358 0.0 6.0 0.00 0.00 0.00
20260501180507 81 337 0.0 3.0 0.00 0.00 0.00
20260501180007 81 0 0.0 3.0 0.00 0.00 0.00
20260501175014 81 0 1.0 4.0 0.00 0.00 0.00
20260501174504 81 0 0.0 4.0 0.00 0.00 0.00